Hourly Weather Kozlow

Today, 27 October, Tuesday

Time Temperature Precipitation Wind Pressure Humidity
00:00 +10°C° 0 mm 2 mps 742 mmHg 87%
01:00 +10°C° 0 mm 2 mps 742 mmHg 88%
02:00 +10°C° 0.1 mm 2 mps 743 mmHg 87%
03:00 +10°C° 0.1 mm 2 mps 743 mmHg 86%
04:00 +10°C° 0.1 mm 2 mps 743 mmHg 85%
05:00 +10°C° 0 mm 2 mps 743 mmHg 84%
06:00 +11°C° 0 mm 1 mps 744 mmHg 83%
07:00 +11°C° 0 mm 1 mps 744 mmHg 82%
08:00 +11°C° 0.1 mm 1 mps 744 mmHg 82%
09:00 +11°C° 0.1 mm 1 mps 745 mmHg 82%
10:00 +11°C° 0.1 mm 1 mps 745 mmHg 82%
11:00 +11°C° 0 mm 1 mps 745 mmHg 80%
12:00 +10°C° 0 mm 2 mps 745 mmHg 78%
13:00 +12°C° 0 mm 2 mps 745 mmHg 76%
14:00 +12°C° 0 mm 2 mps 746 mmHg 77%
15:00 +12°C° 0 mm 2 mps 746 mmHg 78%
16:00 +10°C° 0 mm 2 mps 746 mmHg 79%
17:00 +10°C° 0 mm 2 mps 746 mmHg 79%
18:00 +10°C° 0 mm 2 mps 747 mmHg 79%
19:00 +10°C° 0 mm 3 mps 747 mmHg 79%
20:00 +9°C° 0 mm 3 mps 747 mmHg 80%
21:00 +9°C° 0 mm 3 mps 747 mmHg 81%
22:00 +8°C° 0 mm 3 mps 747 mmHg 82%
23:00 +8°C° 0 mm 3 mps 748 mmHg 83%

Tomorrow, 28 October, Wednesday

Time Temperature Precipitation Wind Pressure Humidity
00:00 +8°C° 0 mm 3 mps 748 mmHg 83%
01:00 +7°C° 0 mm 3 mps 748 mmHg 84%
02:00 +7°C° 0 mm 3 mps 748 mmHg 84%
03:00 +7°C° 0 mm 3 mps 748 mmHg 84%
04:00 +7°C° 0 mm 3 mps 747 mmHg 84%
05:00 +7°C° 0 mm 3 mps 748 mmHg 83%
06:00 +7°C° 0 mm 3 mps 748 mmHg 82%
07:00 +5°C° 0 mm 4 mps 748 mmHg 81%
08:00 +7°C° 0 mm 4 mps 748 mmHg 72%
09:00 +10°C° 0 mm 4 mps 748 mmHg 63%
10:00 +12°C° 0 mm 5 mps 748 mmHg 55%
11:00 +12°C° 0 mm 4 mps 748 mmHg 55%
12:00 +12°C° 0 mm 4 mps 748 mmHg 56%
13:00 +12°C° 0 mm 4 mps 748 mmHg 56%
14:00 +12°C° 0 mm 4 mps 748 mmHg 60%
15:00 +12°C° 0 mm 4 mps 748 mmHg 64%
16:00 +11°C° 0 mm 4 mps 748 mmHg 67%
17:00 +11°C° 0 mm 4 mps 749 mmHg 70%
18:00 +10°C° 0 mm 4 mps 749 mmHg 73%
19:00 +10°C° 0 mm 4 mps 749 mmHg 76%
20:00 +8°C° 0 mm 4 mps 749 mmHg 78%
21:00 +8°C° 0 mm 4 mps 749 mmHg 79%
22:00 +8°C° 0 mm 4 mps 750 mmHg 80%
23:00 +8°C° 0 mm 4 mps 750 mmHg 81%

Day after tomorrow, 29 October, Thursday

Time Temperature Precipitation Wind Pressure Humidity
00:00 +8°C° 0 mm 4 mps 750 mmHg 81%
01:00 +8°C° 0 mm 4 mps 750 mmHg 82%
02:00 +8°C° 0 mm 4 mps 749 mmHg 82%
03:00 +9°C° 0 mm 3 mps 749 mmHg 81%
04:00 +9°C° 0 mm 3 mps 749 mmHg 81%
05:00 +8°C° 0 mm 4 mps 749 mmHg 79%
06:00 +10°C° 0 mm 4 mps 749 mmHg 78%
07:00 +9°C° 0 mm 5 mps 749 mmHg 77%
08:00 +10°C° 0 mm 5 mps 749 mmHg 75%
09:00 +10°C° 0 mm 5 mps 749 mmHg 73%
10:00 +11°C° 0 mm 6 mps 749 mmHg 71%
11:00 +11°C° 0.2 mm 6 mps 749 mmHg 73%
12:00 +12°C° 0.2 mm 5 mps 749 mmHg 75%
13:00 +10°C° 0.2 mm 5 mps 749 mmHg 77%
14:00 +10°C° 0.1 mm 5 mps 749 mmHg 76%
15:00 +11°C° 0.1 mm 4 mps 749 mmHg 76%
16:00 +10°C° 0.1 mm 4 mps 749 mmHg 75%
17:00 +10°C° 0.1 mm 4 mps 750 mmHg 76%
18:00 +8°C° 0.1 mm 4 mps 750 mmHg 77%
19:00 +7°C° 0.1 mm 4 mps 751 mmHg 78%
20:00 +7°C° 0 mm 4 mps 752 mmHg 80%
21:00 +6°C° 0 mm 4 mps 752 mmHg 81%
22:00 +6°C° 0 mm 4 mps 753 mmHg 82%
23:00 +5°C° 0 mm 4 mps 753 mmHg 83%

30 October, Friday

Time Temperature Precipitation Wind Pressure Humidity
00:00 +5°C° 0 mm 4 mps 753 mmHg 83%
01:00 +5°C° 0 mm 4 mps 754 mmHg 84%
02:00 +5°C° 0 mm 4 mps 754 mmHg 84%
03:00 +4°C° 0 mm 4 mps 754 mmHg 85%
04:00 +4°C° 0 mm 3 mps 754 mmHg 86%
05:00 +4°C° 0 mm 3 mps 754 mmHg 86%
06:00 +4°C° 0 mm 3 mps 754 mmHg 86%
07:00 +4°C° 0 mm 3 mps 754 mmHg 85%
08:00 +5°C° 0 mm 3 mps 754 mmHg 81%
09:00 +7°C° 0 mm 3 mps 754 mmHg 76%
10:00 +9°C° 0 mm 3 mps 754 mmHg 72%
11:00 +9°C° 0.3 mm 3 mps 754 mmHg 75%
12:00 +9°C° 0.3 mm 3 mps 753 mmHg 79%
13:00 +9°C° 0.3 mm 3 mps 753 mmHg 83%
14:00 +9°C° 1 mm 2 mps 753 mmHg 86%
15:00 +8°C° 1 mm 2 mps 752 mmHg 90%
16:00 +8°C° 1 mm 2 mps 752 mmHg 93%
17:00 +8°C° 0.8 mm 2 mps 752 mmHg 94%
18:00 +9°C° 0.8 mm 2 mps 752 mmHg 94%
19:00 +9°C° 0.8 mm 2 mps 752 mmHg 95%
20:00 +9°C° 0.9 mm 3 mps 753 mmHg 95%
21:00 +10°C° 0.9 mm 3 mps 753 mmHg 96%
22:00 +10°C° 0.9 mm 3 mps 753 mmHg 96%
23:00 +10°C° 0.6 mm 3 mps 753 mmHg 97%

31 October, Saturday

Time Temperature Precipitation Wind Pressure Humidity
00:00 +10°C° 0.6 mm 2 mps 753 mmHg 97%
01:00 +10°C° 0.6 mm 2 mps 754 mmHg 97%
02:00 +10°C° 0.4 mm 2 mps 754 mmHg 97%
03:00 +10°C° 0.4 mm 2 mps 754 mmHg 97%
04:00 +11°C° 0.4 mm 1 mps 754 mmHg 97%
05:00 +11°C° 0.4 mm 1 mps 754 mmHg 97%
06:00 +11°C° 0.4 mm 1 mps 754 mmHg 97%
07:00 +11°C° 0.4 mm 1 mps 755 mmHg 97%
08:00 +11°C° 0.3 mm 1 mps 755 mmHg 96%
09:00 +11°C° 0.3 mm 1 mps 755 mmHg 96%
10:00 +11°C° 0.3 mm 1 mps 755 mmHg 95%
11:00 +11°C° 0.3 mm 1 mps 755 mmHg 94%
12:00 +11°C° 0.3 mm 1 mps 755 mmHg 93%
13:00 +11°C° 0.3 mm 1 mps 755 mmHg 93%
14:00 +11°C° 0.1 mm 1 mps 755 mmHg 93%
15:00 +11°C° 0.1 mm 1 mps 755 mmHg 93%
16:00 +10°C° 0.1 mm 2 mps 755 mmHg 92%
17:00 +10°C° 0 mm 2 mps 755 mmHg 91%
18:00 +10°C° 0 mm 2 mps 756 mmHg 89%
19:00 +10°C° 0 mm 3 mps 756 mmHg 88%
20:00 +10°C° 0 mm 3 mps 756 mmHg 85%
21:00 +9°C° 0 mm 3 mps 756 mmHg 83%
22:00 +8°C° 0 mm 4 mps 756 mmHg 81%
23:00 +7°C° 0 mm 4 mps 756 mmHg 82%

1 November, Sunday

Time Temperature Precipitation Wind Pressure Humidity
00:00 +7°C° 0 mm 4 mps 755 mmHg 83%
01:00 +6°C° 0 mm 4 mps 755 mmHg 84%
02:00 +6°C° 0 mm 4 mps 755 mmHg 85%
03:00 +6°C° 0 mm 4 mps 755 mmHg 85%
04:00 +7°C° 0 mm 3 mps 755 mmHg 86%
05:00 +7°C° 0 mm 3 mps 755 mmHg 86%
06:00 +7°C° 0 mm 3 mps 755 mmHg 86%
07:00 +7°C° 0 mm 3 mps 755 mmHg 86%
08:00 +9°C° 0 mm 3 mps 755 mmHg 82%
09:00 +10°C° 0 mm 3 mps 755 mmHg 78%
10:00 +12°C° 0 mm 3 mps 755 mmHg 74%
11:00 +13°C° 0 mm 3 mps 754 mmHg 72%
12:00 +14°C° 0 mm 3 mps 754 mmHg 70%
13:00 +16°C° 0 mm 2 mps 754 mmHg 68%
14:00 +15°C° 0 mm 2 mps 754 mmHg 73%
15:00 +14°C° 0 mm 2 mps 754 mmHg 77%
16:00 +13°C° 0 mm 2 mps 753 mmHg 82%
17:00 +12°C° 0 mm 1 mps 753 mmHg 84%
18:00 +12°C° 0 mm 1 mps 754 mmHg 86%
19:00 +11°C° 0 mm 1 mps 754 mmHg 88%
20:00 +11°C° 0 mm 1 mps 754 mmHg 88%
21:00 +11°C° 0 mm 1 mps 754 mmHg 88%
22:00 +11°C° 0 mm 1 mps 754 mmHg 89%
23:00 +11°C° 0 mm 1 mps 753 mmHg 89%
Show more